Location: Newark
(52.5694°N, 1.3190°W)
Time: 17:43:57
(UTC+00:00)

Envisat - Visible Passes

Search period start: 21 January 2020 00:00
Search period end: 31 January 2020 00:00
Orbit: 764 x 766 km, 98.1° (Epoch: 21 January)

Date Brightness Start Highest point End Pass type
(mag) Time Alt. Az. Time Alt. Az. Time Alt. Az.
21 Jan 6.2 05:22:15 10° NE 05:24:50 14° E 05:27:22 10° ESE visible
21 Jan 3.2 06:59:34 10° NNE 07:04:42 80° ESE 07:09:47 10° SSW visible
21 Jan 4.2 18:20:21 10° S 18:25:13 45° W 18:30:07 10° NNW visible
22 Jan 4.4 06:22:57 10° NNE 06:27:47 41° E 06:32:35 10° SSE visible
22 Jan 3.0 17:43:14 10° SSE 17:48:19 87° WSW 17:53:27 10° NNW visible
22 Jan 6.0 19:25:13 10° WSW 19:28:08 15° W 19:31:03 10° NW visible
23 Jan 5.6 05:46:45 10° NE 05:50:40 22° E 05:54:34 10° SE visible
23 Jan 3.2 17:06:44 10° SE 17:11:37 50° ENE 17:16:32 10° N visible
23 Jan 5.1 18:46:31 10° SSW 18:50:54 29° W 18:55:19 10° NNW visible
24 Jan 6.4 05:11:56 10° ENE 05:13:21 11° E 05:14:45 10° E visible
24 Jan 3.5 06:48:17 10° NNE 06:53:23 66° ESE 06:58:27 10° S visible
24 Jan 3.8 18:08:53 10° S 18:13:52 55° W 18:18:53 10° NNW visible
25 Jan 4.8 06:11:46 10° NNE 06:16:25 34° E 06:21:01 10° SSE visible
25 Jan 3.0 17:31:57 10° SSE 17:37:02 78° ENE 17:42:09 10° NNW visible
25 Jan 5.8 19:13:11 10° SW 19:16:41 18° W 19:20:12 10° NW visible
26 Jan 5.9 05:35:46 10° NE 05:39:15 18° E 05:42:41 10° SE visible
26 Jan 3.0 07:13:47 10° NNE 07:18:54 80° WNW 07:23:58 10° SSW visible
26 Jan 4.7 18:34:53 10° SSW 18:39:31 35° W 18:44:10 10° NNW visible
27 Jan 3.9 06:37:02 10° NNE 06:42:03 54° E 06:47:02 10° S visible
27 Jan 3.4 17:57:29 10° S 18:02:32 67° WSW 18:07:38 10° NNW visible
27 Jan 6.3 19:41:00 10° W 19:42:34 11° W 19:44:08 10° WNW visible
28 Jan 5.2 06:00:38 10° NNE 06:05:01 28° E 06:09:23 10° SSE visible
28 Jan 3.0 17:20:44 10° SSE 17:25:46 65° ENE 17:30:48 10° N visible
28 Jan 5.5 19:01:19 10° SW 19:05:15 22° W 19:09:12 10° NW visible
29 Jan 6.1 05:24:56 10° NE 05:27:47 15° E 05:30:37 10° ESE visible
29 Jan 3.1 07:02:28 10° NNE 07:07:36 86° ESE 07:12:41 10° SSW visible
29 Jan 4.4 18:23:20 10° SSW 18:28:09 42° W 18:32:59 10° NNW visible
30 Jan 4.3 06:25:49 10° NNE 06:30:42 44° E 06:35:34 10° S visible
30 Jan 3.1 17:46:08 10° SSE 17:51:14 81° WSW 17:56:21 10° NNW visible
30 Jan 6.2 19:28:28 10° WSW 19:31:05 14° W 19:33:44 10° NW visible
